Starlink 35272

operational
NORAD ID: 65899 Int'l Des: 2025-224 Owner: SPXS Country: US Constellation: starlink
LEOCIRCULAR

关于 Starlink 35272

正在加载描述...

实时位置

正在加载3D地球...

即将过境

高度历史

Altitude vs Time

uPlot chart will show altitude changes over time

两行轨道根数

1 65899U 25224T 25340.71751757 .00098732 00000-0 32906-2 0 9997
2 65899 53.1619 82.9170 0001474 113.6192 246.4964 15.30308628 10631
Epoch: Dec 6, 2025 • Age: 14 hours

当前状态

高度 475.1 km
速度 7.63 km/s
星下点 21.37°N, 90.87°W
发射日期 Oct 7, 2025
运行时间 0.1 years
类型 internet

技术详情

分类 Payload
质量 575.00 kg
干质量 530.00 kg
总质量 575.00 kg
长度 0.30 m
直径 4.10 m
跨度 29.00 m
形状 Box + pan
制造商 SPXS
平台类型 Starlink V2MO
阶段状态 In Orbit
所有者/国家 SPXS/US

大型星座

Loading constellations...